Terminal Aerodrome Forecast
Issued by NWS Boise, ID

Home | Current Version | Previous Version | Text Only | Print | Product List | Glossary On
Versions: 1 2 3 4 5 6 7 8 9 10 11 12 13 14 15 16 17 18 19 20 21 22 23 24 25 26 27 28 29 30 31 32 33 34 35 36 37
000
FTUS45 KBOI 210538
TAFBOI
TAF
KBOI 210538Z 2106/2206 17014KT P6SM VCSH OVC050
     FM210900 13012KT P6SM -RA OVC040
     FM211400 13010G15KT P6SM BKN080
     FM212000 15018G28KT P6SM -SHRA OVC040
     FM220100 33012KT P6SM SCT050=

USA.gov is the U.S. government's official web portal to all federal, state and local government web resources and services.